Regional Weather Roundup
Issued by NWS Goodland, KS

Home | Current Version | Previous Version | Graphics & Text | Print | Product List | Glossary Off
Versions: 1 2 3 4 5 6 7 8 9 10 11 12 13 14 15 16 17 18 19 20 21 22 23 24 25 26 27 28 29 30 31 32 33 34 35 36 37 38 39 40 41 42 43 44 45 46 47 48 49 50

000
ASUS43 KGLD 270208
RWRGLD

GOODLAND FORECAST AREA HOURLY WEATHER ROUNDUP
NATIONAL WEATHER SERVICE GOODLAND KS
800 PM MDT SUN MAR 26 2017

...OFFICIAL OBSERVATIONS...

CITY           SKY/WX    TMP DP  RH WIND       PRES   REMARKS
GOODLAND KS    CLOUDY    40  39  97 SE8       29.92R
HILL CITY KS   CLOUDY    46  45  96 NW5       29.94S
IMPERIAL NEB   PTCLDY    45  41  86 S6        29.90R
MCCOOK NEB     CLOUDY    48  41  76 S6        29.92R
AKRON CO       PTCLDY    43  35  73 NW12      29.93R
BURLINGTON CO  CLEAR     42  38  85 CALM      29.94R
LIMON CO       CLEAR     36  33  89 NW3       29.96R
$$

...UNOFFICIAL OBSERVATIONS...

CITY           SKY/WX    TMP DP  RH WIND       PRES   REMARKS
LENORA KS        N/A     44  32  63 CALM        N/A
NORTON KS      CLOUDY    45  41  87 W3        29.93F
SHARON SPRINGS   N/A     42  41  96 NE5         N/A
TRENTON NEB      N/A     46  32  58 CALM        N/A
YUMA CO        MOCLDY    46  36  66 CALM      29.92R
$$



USA.gov is the U.S. government's official web portal to all federal, state and local government web resources and services.